WetterOnline ( http://www.wetteronline.ch )

Wetter aktuell Frankfurt am Main

Aktuelles Wetter: Offenbach (119m)

6-stündlich | Neueste Meldungen
Ortszeit Temperatur Wetter
So, 24.03. 1:00 6.6° C leicht bewölkt
Sa, 23.03. 19:00 11.8° C wolkig
Sa, 23.03. 13:00 15.9° C leicht bewölkt
Sa, 23.03. 7:00 0.7° C wolkenlos
Sa, 23.03. 1:00 4.7° C wolkenlos
Fr, 22.03. 19:00 15.1° C wolkenlos
Fr, 22.03. 13:00 15.5° C leicht bewölkt
Fr, 22.03. 7:00 0.8° C leicht bewölkt
Ortszeit Temperatur Wetter
So, 24.03. 2:00 6.3° C wolkenlos
So, 24.03. 1:50 6.3° C wolkenlos
So, 24.03. 1:40 6.2° C fast wolkenlos
So, 24.03. 1:30 6.5° C wolkig
So, 24.03. 1:20 6.5° C wolkig
So, 24.03. 1:10 6.5° C wolkig
So, 24.03. 1:00 6.6° C leicht bewölkt
So, 24.03. 0:30 7.0° C leicht bewölkt
So, 24.03. 0:00 7.1° C fast wolkenlos
Sa, 23.03. 23:30 7.4° C leicht bewölkt
Sa, 23.03. 23:00 7.9° C wolkig
Ortszeit Relative Feuchte Sichtweite
So, 24.03. 1:00 85% 7 km
Sa, 23.03. 19:00 65% 6 km
Sa, 23.03. 13:00 49% 18 km
Sa, 23.03. 7:00 94% 19 km
Sa, 23.03. 1:00 86% 35 km
Fr, 22.03. 19:00 44% 50 km
Fr, 22.03. 13:00 38% 50 km
Fr, 22.03. 7:00 94% 22 km
Ortszeit Relative Feuchte Sichtweite
So, 24.03. 2:00 87% 7 km
So, 24.03. 1:50 87% -
So, 24.03. 1:40 88% -
So, 24.03. 1:30 86% 7 km
So, 24.03. 1:20 86% -
So, 24.03. 1:10 85% -
So, 24.03. 1:00 85% 7 km
So, 24.03. 0:30 84% 8 km
So, 24.03. 0:00 83% 8 km
Sa, 23.03. 23:30 81% 9 km
Sa, 23.03. 23:00 80% 9 km
Ortszeit Niederschlagsmenge Niederschlagsart
So, 24.03. 1:00 0.0 l/m2 in 6 Std. -
Sa, 23.03. 19:00 0.0 l/m2 in 12 Std. -
Sa, 23.03. 13:00 0.0 l/m2 in 6 Std. -
Sa, 23.03. 7:00 0.0 l/m2 in 12 Std. -
Sa, 23.03. 1:00 0.0 l/m2 in 6 Std. -
Fr, 22.03. 19:00 0.0 l/m2 in 12 Std. -
Fr, 22.03. 13:00 0.0 l/m2 in 6 Std. -
Fr, 22.03. 7:00 0.0 l/m2 in 12 Std. -
Ortszeit Niederschlagsmenge Niederschlagsart
So, 24.03. 2:00 0.0 l/m2 in 1 Std. -
So, 24.03. 1:50 keine Meldung -
So, 24.03. 1:40 keine Meldung -
So, 24.03. 1:30 0.0 l/m2 in 1 Std. -
So, 24.03. 1:20 keine Meldung -
So, 24.03. 1:10 keine Meldung -
So, 24.03. 1:00 0.0 l/m2 in 1 Std. -
So, 24.03. 0:30 0.0 l/m2 in 1 Std. -
So, 24.03. 0:00 0.0 l/m2 in 1 Std. -
Sa, 23.03. 23:30 0.0 l/m2 in 1 Std. -
Sa, 23.03. 23:00 0.0 l/m2 in 1 Std. -
Ortszeit Stärke Spitze Richtung
km/h Bft. km/h Grad Sektor
So, 24.03. 1:00 7 2 33 360° N
Sa, 23.03. 19:00 11 2 36 350° N
Sa, 23.03. 13:00 9 2 17 300° NW
Sa, 23.03. 7:00 4 1 7 140° SO
Sa, 23.03. 1:00 0 0 14 - -
Fr, 22.03. 19:00 7 2 22 130° SO
Fr, 22.03. 13:00 7 2 14 50° NO
Fr, 22.03. 7:00 4 1 7 50° NO
Ortszeit Stärke Spitze Richtung
km/h Bft. km/h Grad Sektor
So, 24.03. 2:00 7 2 11 10° N
So, 24.03. 1:50 7 2 - 10° N
So, 24.03. 1:40 7 2 - 10° N
So, 24.03. 1:30 7 2 11 10° N
So, 24.03. 1:20 7 2 - 10° N
So, 24.03. 1:10 7 2 - 10° N
So, 24.03. 1:00 7 2 15 360° N
So, 24.03. 0:30 7 2 14 10° N
So, 24.03. 0:00 7 2 14 10° N
Sa, 23.03. 23:30 7 2 14 20° N
Sa, 23.03. 23:00 7 2 18 10° N
Ortszeit Untergrenze Bedeckung Gattung
total tief tief mittel hoch
So, 24.03. 1:00 10500 m 6/8 0/8 - - -
Sa, 23.03. 19:00 10500 m 8/8 0/8 - - -
Sa, 23.03. 13:00 10500 m 8/8 0/8 - - -
Sa, 23.03. 7:00 - 0/8 0/8 - - -
Sa, 23.03. 1:00 - 0/8 0/8 - - -
Fr, 22.03. 19:00 10500 m 0/8 0/8 - - -
Fr, 22.03. 13:00 8400 m 8/8 0/8 - - -
Fr, 22.03. 7:00 9000 m 3/8 0/8 - - -
Ortszeit Bedeckungsgrad in Achtel und Wolkenuntergrenze
So, 24.03. 2:00 keine Wolken
So, 24.03. 1:50 keine Wolken
So, 24.03. 1:40 2(10500m)
So, 24.03. 1:30 7(10500m)
So, 24.03. 1:20 7(10500m)
So, 24.03. 1:10 7(10500m)
So, 24.03. 1:00 6(10500m)
So, 24.03. 0:30 5(10500m)
So, 24.03. 0:00 1(10500m)
Sa, 23.03. 23:30 3(10500m)
Sa, 23.03. 23:00 8(10500m)
Ortszeit Luftdruck NN (hPa) Tendenz (hPa in 3 Std.)
So, 24.03. 1:00 1028 - 1,1
Sa, 23.03. 19:00 1028 + 1,4
Sa, 23.03. 13:00 1028 - 0,5
Sa, 23.03. 7:00 1028 + 0,6
Sa, 23.03. 1:00 1028 - 0,4
Fr, 22.03. 19:00 1027 - 0,7
Fr, 22.03. 13:00 1030 - 1,5
Fr, 22.03. 7:00 1032 + 0,1
Ortszeit Luftdruck NN (hPa) Tendenz (hPa in 3 Std.)
So, 24.03. 2:00 1028 - 1,3
So, 24.03. 1:50 1028 keine Meldung
So, 24.03. 1:40 1028 keine Meldung
So, 24.03. 1:30 1028 - 1,2
So, 24.03. 1:20 1028 keine Meldung
So, 24.03. 1:10 1028 keine Meldung
So, 24.03. 1:00 1028 - 1,1
So, 24.03. 0:30 1029 - 0,9
So, 24.03. 0:00 1029 - 0,5
Sa, 23.03. 23:30 1029 - 0,3
Sa, 23.03. 23:00 1029 - 0,2
Ortszeit Schneehöhe (cm)
So, 24.03. 1:00 0
Sa, 23.03. 19:00 0
Sa, 23.03. 13:00 0
Sa, 23.03. 7:00 0
Sa, 23.03. 1:00 0
Fr, 22.03. 19:00 0
Fr, 22.03. 13:00 0
Fr, 22.03. 7:00 0
Ortszeit Schneehöhe (cm)
So, 24.03. 2:00 0
So, 24.03. 1:50 0
So, 24.03. 1:40 0
So, 24.03. 1:30 0
So, 24.03. 1:20 0
So, 24.03. 1:10 0
So, 24.03. 1:00 0
So, 24.03. 0:30 0
So, 24.03. 0:00 0
Sa, 23.03. 23:30 0
Sa, 23.03. 23:00 0
Link zu dieser Seite / Seite empfehlen

Das Wetter in ...